This demonstration page uses our WeatherBlox Daily Observations layout. Learn more.

Left ArrowRight Arrow

41.55636, -103.73856

Hourly Observations for June 30, 2019

Temp ( °F °C ) Dew Point ( °F °C ) Humidity (%) Winds ( mph kmh ) Pressure ( in mb ) Visibility ( mi km ) Precip ( " mm )
12:58 am 00:58 Mostly Clear 82 28 49 9.5 31 31 NNE 9 15 29.97 1015 10 16 N/A
1:58 am 01:58 Clear 79 26.2 47 8.3 32 32 N N/A 29.97 1015 10 16 N/A
2:58 am 02:58 Mostly Cloudy 81 27.4 40 4.5 23 23 N N/A 29.97 1015 10 16 N/A
3:58 am 03:58 Mostly Cloudy with Light Showers 74 23.2 53 11.5 48 48 S 14 22 30.00 1016 10 16 N/A
4:58 am 04:58 Mostly Cloudy 73 23 49 9.2 42 42 SSW 12 19 30.01 1016 10 16 N/A
5:58 am 05:58 Partly Cloudy 68 19.9 50 10.2 54 54 SSW 14 22 30.00 1016 10 16 N/A
6:58 am 06:58 Mostly Clear 64 18 52 11.1 64 64 SSW 9 15 30.00 1016 10 16 N/A
7:58 am 07:58 Mostly Cloudy 70 21 50 10 50 50 WSW 6 9 29.97 1015 10 16 N/A
8:58 am 08:58 Partly Cloudy 70 21.1 47 8.2 44 44 SSW 9 15 29.96 1015 10 16 N/A
9:58 am 09:58 Clear 68 19.9 48 9.1 50 50 SSW 7 11 29.97 1015 10 16 N/A
10:58 am 10:58 Mostly Clear 64 17.5 49 9.2 58 58 ENE 8 13 29.99 1016 10 16 N/A
11:58 am 11:58 Sunny 67 19.2 49 9.6 54 54 ESE 3 6 29.98 1015 10 16 N/A
12:58 pm 12:58 Mostly Cloudy 69 20.4 53 11.5 57 57 SSE 3 6 30.00 1016 10 16 N/A
1:58 pm 13:58 Sunny 72 22.2 54 12.2 53 53 N N/A 30.00 1016 10 16 N/A
2:58 pm 14:58 Sunny 78 25.5 50 9.9 37 37 W 6 9 29.98 1015 10 16 N/A
3:58 pm 15:58 Sunny 81 27.2 47 8.3 30 30 WNW 6 9 29.98 1015 10 16 N/A
4:58 pm 16:58 Sunny 80 26.4 59 14.8 49 49 N 13 20 30.00 1016 10 16 N/A
5:58 pm 17:58 Sunny 79 26.3 59 15.2 51 51 NNE 14 22 30.01 1016 10 16 N/A
6:58 pm 18:58 Sunny 81 27 59 15.2 48 48 N 14 22 30.02 1017 10 16 N/A
7:58 pm 19:58 Sunny 83 28.3 56 13.6 40 40 N 20 31 29.98 1015 10 16 N/A
8:58 pm 20:58 Sunny 81 27.4 57 14 44 44 NNE 13 20 29.98 1015 10 16 N/A
9:58 pm 21:58 Sunny 82 27.8 60 15.6 47 47 NE 13 20 29.96 1015 10 16 N/A

Powered by AerisWeather